カタログに戻る

GLOBALSTAR M038

運用中通信LEO
NORAD 25624·PAYLOAD·🇺🇸 United States

打ち上げ Feb 9, 1999 から Baikonur Cosmodrome

Loading…

次のパス (今後24時間)

TLE

最新Source: Space-Track

元期: Sep 14, 2026, 20:53 UTC

1 25624U 99004D   26257.87076939 -.00000076  00000-0  15775-3 0  9994
2 25624  51.9960 202.1039 0001557 299.3966  93.8328 12.32550041258449

AllMySatでGLOBALSTAR M038をリアルタイム追跡

Download on the App Store